Regional Weather Roundup
Issued by NWS

Home | Current Version | Previous Version | Text Only | Print | Product List | Glossary On
Versions: 1 2 3 4 5 6 7 8 9 10 11 12 13 14 15 16 17 18 19 20 21 22 23 24 25 26 27
000
ASUS45 KBOU 252107
RWRCO

WEATHER ROUNDUP FOR COLORADO
NATIONAL WEATHER SERVICE DENVER/BOULDER CO
300 PM MDT SAT MAR 25 2017

NOTE: "FAIR" INDICATES FEW OR NO CLOUDS BELOW 12000 FEET WITH NO
SIGNIFICANT WEATHER AND/OR OBSTRUCTIONS TO VISIBILITY.

COZ001>005-013-030-031-252200-
...NORTHWEST COLORADO...

CITY           SKY/WX    TMP DP  RH WIND       PRES   REMARKS
CRAIG          FAIR      60  20  21 SW13      29.88F
HAYDEN         FAIR      57  19  23 CALM      29.89F
MEEKER         FAIR      59  20  22 SW9       29.89F
MOUNT WERNER   NOT AVBL
STEAMBOAT SPGS FAIR      56  18  23 W5        29.90F
WALDEN         NOT AVBL
$$

COZ006>008-011-252200-
...WEST CENTRAL VALLEYS...

CITY           SKY/WX    TMP DP  RH WIND       PRES   REMARKS
GRAND JUNCTION PTSUNNY   65  23  20 VRB7      29.85F
MONTROSE       FAIR      64  19  17 VRB6      29.89F
EAGLE          SUNNY     59  21  23 CALM      29.91F
RIFLE          FAIR      62  23  22 W12       29.86F
DELTA          FAIR      68  17  14 CALM      29.87F
NUCLA          CLOUDY    59  21  23 SW10      29.96F
$$

COZ017>023-064>068-252200-
...SOUTHWEST COLORADO...

CITY           SKY/WX    TMP DP  RH WIND       PRES   REMARKS
DURANGO        FAIR      58  17  20 VRB7      29.98F
CORTEZ         PTSUNNY   59  20  22 S8G22     29.95F
PAGOSA SPRINGS FAIR      57  14  19 SW9       30.01F
TELLURIDE      CLOUDY    51  14  23 E3        30.02F
WOLF CREEK PAS FAIR      32  14  47 S16G25    30.19F WCI  21
$$

COZ009-010-012-014-032>034-037-058>063-252200-
...CENTRAL COLORADO...

CITY           SKY/WX    TMP DP  RH WIND       PRES   REMARKS
ASPEN          FAIR      58  17  20 N8        29.91F
BUENA VISTA    FAIR      58  14  17 SE17G25   29.93F
COPPER MTN     NOT AVBL
BERTHOUD PASS  PTSUNNY   32  23  69 SE16G25   30.12F WCI  21
COTTONWOOD PAS FAIR      54  12  19 E17G23    30.00F
GUNNISON       FAIR      50  26  39 S5        29.96F
KREMMLING      FAIR      63  10  13 SW9       29.92F
LEADVILLE      FAIR      48  10  21 S13       29.99F
MONARCH PASS   FAIR      41  14  33 SW22      30.23F
SALIDA         FAIR      60  15  17 S12G22    29.99F
SUNLIGHT       PTSUNNY   39  18  41 SW12G22   30.09F
WILKERSON PASS FAIR      45  14  29 SW7       30.12F
$$

COZ069>075-252200-
...SAN LUIS VALLEY/SANGRE DE CRISTO MOUNTAINS...

CITY           SKY/WX    TMP DP  RH WIND       PRES   REMARKS
ALAMOSA        FAIR      55  29  36 SE8       29.97F
LA VETA PASS   NOT AVBL
SAGUACHE       FAIR      54  23  30 SE8       30.00F
$$

COZ035-036-038>040-252200-
...NORTHERN COLORADO FRONT RANGE...

CITY           SKY/WX    TMP DP  RH WIND       PRES   REMARKS
DENVER INTL AP PTSUNNY   62  20  19 SE13      29.89F
DMNS CITY PARK   N/A     63   9  11 SE12G23   29.87F
AURORA         CLOUDY    61  10  13 SE15      29.90F
FRONT RANGE AP PTSUNNY   61  21  21 SE18      29.91F
ERIE MUNI ARPT FAIR      64  25  22 NE3       29.88F
BOULDER MUN AP FAIR      61  30  31 NE6       29.88F
CENTENNIAL     PTSUNNY   59  21  23 S16       29.90F
BROOMFIELD     CLOUDY    63  21  20 NE5       29.90F
FORT COLLINS   FAIR      62  32  32 SE12      29.90F
LONGMONT       FAIR      65  31  28 NW3       29.90F
$$

COZ041-046-047-076>085-087-088-252200-
...PIKES PEAK/PALMER DIVIDE AND SOUTHERN FOOTHILLS...

CITY           SKY/WX    TMP DP  RH WIND       PRES   REMARKS
COLO. SPRINGS  CLOUDY    56  27  32 S17       29.95F
A. F. ACADEMY  FAIR      55  28  36 S12       29.94F
SCHRIEVER AFB  FAIR      55  27  34 S12G20    29.96F
ELLICOTT         N/A    N/A N/A N/A S12       29.94F
FALCON         FAIR      53  25  33 S13       29.98F
FORT CARSON    FAIR      58  24  28 S15       29.93F
LIMON          FAIR      59  27  29 S13       29.93F
MONUMENT HILL  FAIR      45  30  57 SE13      29.97F
TRINIDAD       FAIR      62  26  25 E7        29.92F
$$

COZ042>045-048>051-090-091-252200-
...NORTHEAST COLORADO...

CITY           SKY/WX    TMP DP  RH WIND       PRES   REMARKS
GREELEY ARPT   FAIR      63  31  30 SE9       29.89F
AKRON          FAIR      59  30  33 S7        29.91F
BURLINGTON     FAIR      57  28  33 CALM      29.93F
WRAY           NOT AVBL
STERLING       FAIR      63  32  31 S9        29.89F
HOLYOKE        FAIR      61  30  31 S3        29.92F
FORT MORGAN    FAIR      63  26  24 SE8       29.91F
$$

COZ086-089-092>099-252200-
...SOUTHEAST COLORADO...

CITY           SKY/WX    TMP DP  RH WIND       PRES   REMARKS
PUEBLO         FAIR      64  32  30 SE10      29.89F
LA JUNTA       FAIR      63  28  26 SE7       29.91F
LAMAR          FAIR      65  27  23 CALM      29.90F
SPRINGFIELD      N/A     63  20  19 VRB3      29.92F
$$




USA.gov is the U.S. government's official web portal to all federal, state and local government web resources and services.